Flag for Madagascar Weather past 2 weeks in Antananarivo, Madagascar

Now
55 °F

Partly sunny.


Feels Like: 55 °F
Forecast: 49 / 63 °F
Wind: 2 mph from North

Location: Antananarivo / Ivato

Current Time: Aug 2, 2015 at 7:43:09 AM

Latest Report: Aug 2, 2015 at 7:00 AM


Visibility: N/A

Pressure: 30.27 "Hg (25.96 "Hg at 1287m altitude)

Humidity: 100%

Dew point: 55 °F

Location of AntananarivoLocation

Historic Weather in Antananarivo — Graph

°F

Antananarivo temperature yesterday

Maximum temperature yesterday: 77 °F (at 12:00 PM)
Minimum temperature yesterday: 48 °F (at 6:30 AM)
Average temperature yesterday: 62 °F

Past Weeks' High & Low Weather Summary

 TemperatureHumidityPressure
High81 °F (Jul 31, 2:00 PM)100% (Jul 18, 6:00 AM)30.39 "Hg (Jul 18, 6:00 AM)
Low43 °F (Jul 22, 4:30 AM)39% (Jul 26, 1:30 PM)30.12 "Hg (Jul 31, 2:30 PM)
Average60 °F86%30.27 "Hg
* Reported Jul 18 6:00 AM — Aug 2 6:00 AM, Antananarivo, Weather by CustomWeather, © 2015

Note: Actual official high and low records may vary slightly from our data, if they occured in-between our weather recording intervals... More about our weather records

Advertising

Antananarivo weather history for previous 24 hours

 ConditionsComfort  
Time TempWeatherWind HumidityBarometerVisibility
6:00 AM
Sun, Aug 2
54 °FPartly cloudy.No wind100%30.27 "HgN/A
5:30 AM54 °FPartly cloudy.No wind100%30.27 "HgN/A
5:00 AM54 °FPassing clouds.1 mph100%30.27 "HgN/A
4:30 AM54 °FPassing clouds.5 mph100%30.24 "HgN/A
4:00 AM54 °FPassing clouds.3 mph100%30.24 "HgN/A
3:00 AM55 °FCool.7 mph100%30.24 "HgN/A
2:30 AM55 °FCool.8 mph100%30.27 "HgN/A
2:00 AM55 °FCool.5 mph100%30.27 "HgN/A
1:30 AM55 °FCool.No wind100%30.27 "HgN/A
12:30 AM54 °FClear.No wind100%30.27 "Hg10 mi
12:00 AM54 °FClear.No wind100%30.27 "Hg10 mi
11:00 PM
Sat, Aug 1
54 °FPassing clouds.5 mph94%30.27 "HgN/A
10:30 PM55 °FClear.5 mph88%30.27 "Hg10 mi
10:00 PM57 °FPassing clouds.No wind77%30.24 "HgN/A
9:30 PM57 °FPassing clouds.No wind72%30.24 "HgN/A
9:00 PM57 °FPassing clouds.No wind72%30.24 "HgN/A
8:30 PM59 °FPassing clouds.1 mph72%30.24 "HgN/A
8:00 PM59 °FPassing clouds.6 mph72%30.24 "HgN/A
7:30 PM59 °FPassing clouds.6 mph68%30.21 "HgN/A
7:00 PM61 °FPassing clouds.5 mph68%30.21 "HgN/A
6:00 PM66 °FPassing clouds.5 mph56%30.21 "HgN/A
5:00 PM72 °FPassing clouds.8 mph50%30.21 "HgN/A
4:30 PM73 °FMild.N/A47%30.18 "HgN/A
4:00 PM73 °FPassing clouds.10 mph47%30.18 "HgN/A
3:30 PM73 °FPassing clouds.10 mph47%30.18 "HgN/A
3:00 PM75 °FPassing clouds.12 mph47%30.18 "HgN/A
2:30 PM75 °FPassing clouds.14 mph47%30.18 "HgN/A
2:00 PM75 °FPassing clouds.10 mph47%30.15 "HgN/A
1:30 PM75 °FPassing clouds.15 mph47%30.18 "HgN/A
1:00 PM75 °FPassing clouds.14 mph47%30.18 "HgN/A
12:30 PM77 °FPassing clouds.15 mph44%30.18 "HgN/A
12:00 PM77 °FPassing clouds.15 mph44%30.21 "HgN/A
11:30 AM75 °FPassing clouds.14 mph47%30.21 "HgN/A
11:00 AM75 °FPassing clouds.13 mph50%30.21 "HgN/A
10:30 AM72 °FPassing clouds.14 mph57%30.21 "HgN/A
10:00 AM70 °FPassing clouds.13 mph57%30.21 "HgN/A
9:30 AM68 °FPassing clouds.No wind69%30.21 "HgN/A
9:00 AM66 °FPassing clouds.2 mph68%30.21 "HgN/A
8:30 AM63 °FPassing clouds.6 mph73%30.21 "HgN/A
8:00 AM61 °FPassing clouds.5 mph83%30.21 "HgN/A
7:30 AM59 °FPassing clouds.No wind88%30.21 "HgN/A
7:00 AM54 °FPassing clouds.No wind100%30.21 "HgN/A
Weather by CustomWeather, © 2015

See weather overviewHow to use our weather pages